Date String (YYYY-MM-DD hh:mm:ss) UTC,Instrument flags,absolute air pressure of the measurement (hPa),sample flow rate (lpm),inlet stack bypass flow (lpm),air temperature of the measurement (°C),ambient temperature measured by the external sensor (°C),aerosol sample conditioner tube jacket temperature (°C),OPC LED temperature (°C),internal box temperature (°C),relative humidity of the measurement (%),span deviation,mass concentration of particles derived from Lorenz-Mie calculation of OPC scattering (μg/m³),mass concentration of particles derived from Lorenz-Mie calculation of OPC scattering (μg/m³),mass concentration of particles derived from Lorenz-Mie calculation of OPC scattering (μg/m³)
DateTimeUTC,F1_M11,P_M11,Q1_M11,Q2_M11,T1_M11,T2_M11,T3_M11,T4_M11,T5_M11,U1_M11,ZSPAN_M11,X0_M11,X2_M11,X1_M11
2023-12-04 17:00:00,SystemResetWarning,0827.1,4.99,000.00,019.4,018.6,000.0,027.7,020.5,16.4,0000.0,0004.14,0000.33,0000.11
2023-12-04 17:01:00,SystemResetWarning,0827.1,4.99,000.00,019.4,018.6,000.0,027.7,020.6,16.5,0000.0,0004.19,0000.35,0000.11
2023-12-04 17:02:00,SystemResetWarning,0827.1,5.00,000.00,019.4,018.6,000.0,027.7,020.6,16.6,0000.0,0004.26,0000.40,0000.11
2023-12-04 17:03:00,SystemResetWarning,0827.1,5.01,000.00,019.4,018.6,000.0,027.7,020.6,16.4,0000.0,0004.30,0000.41,0000.11
2023-12-04 17:04:00,SystemResetWarning,0827.1,5.01,000.00,019.4,018.6,000.0,027.7,020.6,16.6,0000.0,0004.23,0000.42,0000.11
2023-12-04 17:05:00,SystemResetWarning,0827.1,5.00,000.00,019.4,018.6,000.0,027.7,020.6,16.7,0000.0,0002.59,0000.42,0000.11
2023-12-04 17:06:00,SystemResetWarning,0827.0,4.99,000.00,019.4,018.6,000.0,027.7,020.6,16.5,0000.0,0004.06,0000.40,0000.10
2023-12-04 17:07:00,SystemResetWarning,0826.8,4.99,000.00,019.4,018.6,000.0,027.7,020.6,16.4,0000.0,0003.39,0000.40,0000.10
2023-12-04 17:08:00,SystemResetWarning,0826.9,5.01,000.00,019.4,018.6,000.0,027.7,020.6,16.3,0000.0,0003.74,0000.40,0000.11
2023-12-04 17:09:00,SystemResetWarning,0826.4,5.01,000.00,019.4,018.6,000.0,027.7,020.6,16.4,0000.0,0004.23,0000.38,0000.11
2023-12-04 17:10:00,SystemResetWarning,0826.3,4.99,000.00,019.4,018.6,000.0,027.7,020.6,16.4,0000.0,0004.52,0000.36,0000.11
2023-12-04 17:11:00,SystemResetWarning,0826.6,5.01,000.00,019.4,018.6,000.0,027.7,020.6,16.5,0000.0,0004.37,0000.33,0000.10
2023-12-04 17:12:00,SystemResetWarning,0826.6,4.99,000.00,019.4,018.6,000.0,027.7,020.5,16.8,0000.0,0004.42,0000.33,0000.10
2023-12-04 17:13:00,SystemResetWarning,0826.6,4.98,000.00,019.4,018.6,000.0,027.7,020.6,16.6,0000.0,0004.38,0000.30,0000.11
2023-12-04 17:14:00,SystemResetWarning,0826.7,5.00,000.00,019.4,018.6,000.0,027.7,020.5,16.7,0000.0,0004.42,0000.31,0000.12
2023-12-04 17:15:00,SystemResetWarning,0826.7,5.01,000.00,019.4,018.6,000.0,027.7,020.5,16.3,0000.0,0004.40,0000.30,0000.13
2023-12-04 17:16:00,SystemResetWarning,0826.6,5.00,000.00,019.4,018.6,000.0,027.7,020.5,16.5,0000.0,0004.39,0000.29,0000.13
2023-12-04 17:17:00,SystemResetWarning,0826.7,5.00,000.00,019.4,018.6,000.0,027.7,020.5,16.6,0000.0,0003.25,0000.30,0000.12
2023-12-04 17:18:00,SystemResetWarning,0826.8,5.00,000.00,019.4,018.6,000.0,027.7,020.5,16.7,0000.0,0009.39,0000.52,0000.14
2023-12-04 17:19:00,SystemResetWarning,0826.7,4.99,000.00,019.4,018.6,000.0,027.7,020.5,16.7,0000.0,0013.44,0000.67,0000.14
2023-12-04 17:20:00,SystemResetWarning,0826.7,4.99,000.00,019.4,018.6,000.0,027.7,020.5,16.5,0000.0,0014.05,0000.69,0000.15
2023-12-04 17:21:00,SystemResetWarning,0826.7,5.02,000.00,019.4,018.6,000.0,027.7,020.5,16.3,0000.0,0015.00,0000.71,0000.15
2023-12-04 17:22:00,SystemResetWarning,0826.7,5.01,000.00,019.3,018.6,000.0,027.7,020.5,16.2,0000.0,0015.07,0000.75,0000.15
2023-12-04 17:23:00,SystemResetWarning,0826.7,4.99,000.00,019.4,018.6,000.0,027.7,020.5,16.7,0000.0,0015.02,0000.73,0000.15
2023-12-04 17:24:00,SystemResetWarning,0826.6,4.99,000.00,019.3,018.6,000.0,027.7,020.5,16.7,0000.0,0015.04,0000.71,0000.14
2023-12-04 17:25:00,SystemResetWarning,0826.7,5.02,000.00,019.4,018.6,000.0,027.7,020.5,16.5,0000.0,0015.90,0000.73,0000.14
2023-12-04 17:26:00,SystemResetWarning,0826.8,5.01,000.00,019.3,018.6,000.0,027.7,020.5,16.3,0000.0,0016.08,0000.78,0000.14
2023-12-04 17:27:00,SystemResetWarning,0826.8,5.00,000.00,019.3,018.6,000.0,027.7,020.5,16.6,0000.0,0016.15,0000.79,0000.14
2023-12-04 17:28:00,SystemResetWarning,0826.9,5.00,000.00,019.4,018.6,000.0,027.7,020.5,16.6,0000.0,0016.16,0000.79,0000.14
2023-12-04 17:29:00,SystemResetWarning,0827.1,5.00,000.00,019.4,018.6,000.0,027.7,020.6,16.6,0000.0,0011.52,0000.62,0000.14
2023-12-04 17:30:00,SystemResetWarning,0827.0,5.01,000.00,019.4,018.6,000.0,027.7,020.6,16.6,0000.0,0006.77,0000.46,0000.13
2023-12-04 17:31:00,SystemResetWarning,0827.1,5.02,000.00,019.4,018.6,000.0,027.7,020.6,16.6,0000.0,0005.22,0000.43,0000.13
2023-12-04 17:32:00,SystemResetWarning,0827.2,4.99,000.00,019.4,018.6,000.0,027.7,020.6,16.6,0000.0,0003.04,0000.44,0000.13
2023-12-04 17:33:00,SystemResetWarning,0827.1,4.99,000.00,019.4,018.7,000.0,027.7,020.6,16.7,0000.0,0003.03,0000.45,0000.13
2023-12-04 17:34:00,SystemResetWarning,0827.2,5.01,000.00,019.4,018.7,000.0,027.7,020.6,16.5,0000.0,0003.28,0000.49,0000.14
2023-12-04 17:35:00,SystemResetWarning,0827.1,5.01,000.00,019.4,018.7,000.0,027.7,020.6,16.6,0000.0,0003.38,0000.53,0000.14
2023-12-04 17:36:00,SystemResetWarning,0827.1,5.01,000.00,019.4,018.7,000.0,027.7,020.6,16.5,0000.0,0001.70,0000.50,0000.14
2023-12-04 17:37:00,SystemResetWarning,0827.1,4.98,000.00,019.4,018.7,000.0,027.7,020.7,16.3,0000.0,0001.35,0000.43,0000.13
2023-12-04 17:38:00,SystemResetWarning,0827.1,4.99,000.00,019.4,018.7,000.0,027.7,020.7,16.2,0000.0,0001.15,0000.41,0000.13
2023-12-04 17:39:00,SystemResetWarning,0827.2,5.01,000.00,019.5,018.8,000.0,027.7,020.7,16.3,0000.0,0001.19,0000.43,0000.14
2023-12-04 17:40:00,SystemResetWarning,0827.2,5.01,000.00,019.5,018.8,000.0,027.7,020.7,16.2,0000.0,0001.14,0000.44,0000.14
2023-12-04 17:41:00,SystemResetWarning,0827.2,4.99,000.00,019.5,018.8,000.0,027.7,020.7,16.2,0000.0,0001.13,0000.44,0000.15
2023-12-04 17:42:00,SystemResetWarning,0827.2,4.99,000.00,019.5,018.8,000.0,027.7,020.8,16.1,0000.0,0001.16,0000.45,0000.15
2023-12-04 17:43:00,SystemResetWarning,0827.3,5.01,000.00,019.5,018.8,000.0,027.7,020.8,16.0,0000.0,0001.18,0000.46,0000.15
2023-12-04 17:44:00,SystemResetWarning,0827.4,5.01,000.00,019.5,018.9,000.0,027.8,020.8,16.2,0000.0,0001.13,0000.42,0000.15
2023-12-04 17:45:00,SystemResetWarning,0827.3,5.00,000.00,019.5,018.9,000.0,027.8,020.8,16.5,0000.0,0000.93,0000.40,0000.15
2023-12-04 17:46:00,SystemResetWarning,0827.3,5.00,000.00,019.5,018.9,000.0,027.8,020.8,16.5,0000.0,0000.89,0000.36,0000.15
2023-12-04 17:47:00,SystemResetWarning,0827.4,4.99,000.00,019.6,018.9,000.0,027.8,020.8,16.6,0000.0,0000.78,0000.33,0000.15
2023-12-04 17:48:00,SystemResetWarning,0827.4,5.00,000.00,019.6,019.0,000.0,027.8,020.9,16.5,0000.0,0000.81,0000.34,0000.16
2023-12-04 17:49:00,SystemResetWarning,0827.3,5.00,000.00,019.6,019.0,000.0,027.8,020.9,16.6,0000.0,0000.97,0000.34,0000.16
2023-12-04 17:50:00,SystemResetWarning,0827.4,5.00,000.00,019.6,019.0,000.0,027.8,020.9,16.7,0000.0,0001.00,0000.34,0000.16
2023-12-04 17:51:00,SystemResetWarning,0827.3,5.00,000.00,019.6,019.0,000.0,027.8,020.9,16.5,0000.0,0001.07,0000.34,0000.16
2023-12-04 17:52:00,SystemResetWarning,0827.4,5.00,000.00,019.6,019.1,000.0,027.8,021.0,16.5,0000.0,0001.19,0000.36,0000.15
2023-12-04 17:53:00,SystemResetWarning,0827.4,5.00,000.00,019.7,019.1,000.0,027.9,021.0,16.8,0000.0,0001.44,0000.37,0000.14
2023-12-04 17:54:00,SystemResetWarning,0827.4,5.00,000.00,019.7,019.1,000.0,027.9,021.0,16.8,0000.0,0001.41,0000.36,0000.14
2023-12-04 17:55:00,SystemResetWarning,0827.3,5.00,000.00,019.7,019.1,000.0,027.9,021.0,16.6,0000.0,0001.36,0000.35,0000.14
2023-12-04 17:56:00,SystemResetWarning,0827.3,4.99,000.00,019.7,019.2,000.0,027.9,021.0,15.7,0000.0,0001.35,0000.34,0000.13
2023-12-04 17:57:00,SystemResetWarning,0827.4,5.02,000.00,019.7,019.2,000.0,027.9,021.0,15.2,0000.0,0001.32,0000.36,0000.13
2023-12-04 17:58:00,SystemResetWarning,0827.4,5.00,000.00,019.8,019.2,000.0,027.9,021.0,15.6,0000.0,0001.39,0000.39,0000.14
2023-12-04 17:59:00,SystemResetWarning,0827.5,5.00,000.00,019.8,019.2,000.0,028.0,021.0,15.9,0000.0,0001.39,0000.40,0000.14
